COSMOS 2369

Satellite information

Favourite Embed

Satellite Type and Status

PAYLOADIN ORBIT

Key statistics

Satellite COSMOS 2369 at a glance.

Uptime

9387

Days in orbit

Revolutions

≈ 14.1

Per day

Orbit

LEO

Low Earth Orbit

Inclination

71.0

Latest

Satellite identification and parameters

Extended collection of information and parameters for COSMOS 2369.

Object identification

Identified? True

Debris? False

Object name: COSMOS 2369

International designator: 2000-006A

Object number (NORAD): 26069

Object ID (CCSDS): 26069

Country: COMMONWEALTH OF INDEPENDENT STATES (CIS)

Current information (Y/N): Y

RCS size: LARGE

Orbital parameters

Period: 101.85 minutes

Inclination: 70.993 deg

SMA: 7224.379 km

Apoapsis: 855.589 km

Periapsis: 836.899 km

RAAN: 103.4877 deg

Eccentricy: 0.00129356

Argument of periapsis: 295.6281 deg

Mean anomaly: 64.3504 deg

Mean motion: 14.13845673 rev/day

Mean motion (dot): 0.00000401 rev/day2

B* drag term: 0.0002364165 1/REarth

Two-line elements (TLE)

Creation date: Oct. 16, 2025, 2:37 a.m.

Reference frame: TEME

Reference center: EARTH

Epoch: Oct. 15, 2025, 10:46 p.m. UTC

TLE line 0: 0 COSMOS 2369

TLE line 1: 1 26069U 00006A 25288.94919173 .00000401 00000-0 23642-3 0 9992

TLE line 2: 2 26069 70.9930 103.4877 0012936 295.6281 64.3504 14.13845673589430

Live tracking on map

Real-time ground track for satellite COSMOS 2369.

In-orbit conjunctions

A list of the most updated potential collisions computed for object COSMOS 2369.

Target Orbit TCA Probability of collision Miss distance Type
FENGYUN 1C DEB SSO 2025-09-19 15:20:14 0.000135767 927.0 (m) DEBRIS
FENGYUN 1C DEB SSO 2025-08-05 12:07:53 0.0008162818 402.0 (m) DEBRIS
NOAA 16 DEB SSO 2025-06-08 08:21:54 0.0001171587 606.0 (m) DEBRIS
THORAD AGENA D DEB SSO 2025-03-31 10:38:17 0.0001332832 511.0 (m) DEBRIS
THOR ABLESTAR DEB LEO 2025-03-29 11:45:47 0.0001006699 453.0 (m) DEBRIS

Associated space launch

Second generation ELING satellite

COSMOS 2369 was lifted into orbit during the mission ‘Zenit-2 | Tselina-2 21’, on board a Zenit-2 space rocket.

The launch took place on Feb. 3, 2000, 9:26 a.m. from 45/1.

For more information about the launch, click the button.

Launch to space Zenit-2 | Tselina-2 21
Zenit-2 | Tselina-2 21

Agency: N/A

Status: Launch Successful

Launch date: Feb. 3, 2000, 9:26 a.m. UTC

Rocket: Zenit-2

Launch pad: 45/1

Location: Baikonur Cosmodrome, Republic of Kazakhstan

...

Latest news about this satellite

There are no fresh news available about this satellite. Check back as we update our databases every day.


Newsletter sign-up

Weekly statistics, charts and insights to help you stay on top of the space industry.